Regional Weather Roundup
Issued by NWS

Home | Current Version | Previous Version | Graphics & Text | Print | Product List | Glossary On
Versions: 1 2 3 4 5 6 7 8 9 10 11 12 13 14 15 16 17 18 19 20 21 22 23 24 25 26 27 28 29 30 31 32 33 34 35 36 37 38 39 40 41 42 43 44 45 46 47 48 49 50
000
ASUS45 KPSR 280810
RWRAZ

ARIZONA REGIONAL HOURLY WEATHER ROUNDUP
NATIONAL WEATHER SERVICE PHOENIX AZ
100 AM MST SAT MAR 28 2015

NOTE: FAIR INDICATES FEW OR NO CLOUDS BELOW 12,000 FEET WITH NO
SIGNIFICANT WEATHER AND/OR OBSTRUCTIONS TO VISIBILITY.

AZZ001>003-036-280900-
NORTHWEST ARIZONA

CITY           SKY/WX    TMP DP  RH WIND       PRES   REMARKS
BULLHEAD CITY  CLEAR     68  25  19 CALM      30.01R
KINGMAN        CLEAR     51  23  33 SE3       30.15S
$$

AZZ004>008-015-016-018-280900-
NORTH CENTRAL ARIZONA

CITY           SKY/WX    TMP DP  RH WIND       PRES   REMARKS
GRAND CANYON   PTCLDY    29  20  69 CALM      30.31F
WILLIAMS       CLEAR     37  21  52 S9        30.38F WCI  31
PRESCOTT       CLEAR     46  23  40 SW3       30.24S
FLAGSTAFF      CLEAR     38  20  48 CALM      30.33F
PAYSON         CLEAR     52  23  32 CALM      30.25F
PAGE           CLEAR     60  21  22 W3        30.16S
$$

AZZ009>014-017-280900-
NORTHEAST ARIZONA

CITY           SKY/WX    TMP DP  RH WIND       PRES   REMARKS
WINSLOW        CLEAR     54  22  28 CALM      30.22S
SAINT JOHNS    PTCLDY    50  16  25 SE5       30.25S
WINDOW ROCK    CLEAR     35  15  44 N3        30.30S
SHOW LOW       CLEAR     41  14  33 S9        30.32S
$$

AZZ023-280900-
GREATER PHOENIX AREA

CITY           SKY/WX    TMP DP  RH WIND       PRES   REMARKS
PHOENIX        CLEAR     71  30  21 CALM      30.00S
BUCKEYE        CLEAR     63  30  29 N7        30.02S
LUKE AFB       CLEAR     64  36  34 N10       30.01
DEER VALLEY    CLEAR     70  25  18 NE9       30.02S
SCOTTSDALE     CLEAR     67  33  28 CALM      30.04S
MESA-GATEWAY   CLEAR     59  32  36 SE7       30.05S
$$

AZZ027-028-280900-
SOUTHWEST MARICOPA COUNTY AND PINAL COUNTY

CITY           SKY/WX    TMP DP  RH WIND       PRES   REMARKS
CASA GRANDE    CLEAR     59  21  23 CALM      30.02S
GILA BEND      FAIR      66  21  18 S9        30.00S
$$

AZZ503-504-507>509-280900-
SOUTHEAST ARIZONA

CITY           SKY/WX    TMP DP  RH WIND       PRES   REMARKS
TUCSON         CLEAR     62  24  23 SE7       30.12S
DAVIS-MONTHAN  CLEAR     59  26  28 SE10      30.10S
NOGALES        CLEAR     52  21  29 NE6       30.17S
SIERRA VISTA   CLEAR     61  18  19 SW9       30.21F
DOUGLAS        CLEAR     48  23  37 CALM      30.17F
SAFFORD        CLEAR     54  19  25 NE5       30.11S
$$

AZZ020-021-025-026-031-280900-
SOUTHWEST ARIZONA

CITY           SKY/WX    TMP DP  RH WIND       PRES   REMARKS
YUMA           CLEAR     72  38  29 CALM      29.97F
$$

CAZ031-033-041-043-047-048-061-280900-
SOUTHERN CALIFORNIA

CITY           SKY/WX    TMP DP  RH WIND       PRES   REMARKS
DOWNTOWN L.A.  CLEAR     64  57  78 CALM      30.06R
L.A. AIRPORT   CLEAR     61  57  87 S5        30.06S
SAN DIEGO      FOG       63  59  87 W5        30.09S VSB 1
ONTARIO        CLEAR     67  42  40 N3        30.07S
RIVERSIDE      CLEAR     64  44  48 CALM      30.07S
PALM SPRINGS   CLEAR     74  39  28 CALM      30.01S
EL CENTRO NAS  CLEAR     70  33  25 CALM      29.96S
IMPERIAL       CLEAR     69  40  34 CALM      29.96S
BLYTHE         CLEAR     68  32  26 CALM      29.98S
NEEDLES        CLEAR     71  23  16 W5        30.00S
$$

NVZ020-UTZ003-280900-
SOUTHERN NEVADA-UTAH

CITY           SKY/WX    TMP DP  RH WIND       PRES   REMARKS
LAS VEGAS      CLEAR     69  24  18 S8        30.01F
SALT LAKE CITY CLEAR     53  34  48 SE9       30.12F
$$

NMZ009-TXZ055-280900-
NEW MEXICO-WEST TEXAS

CITY           SKY/WX    TMP DP  RH WIND       PRES   REMARKS
ALBUQUERQUE    CLEAR     54  17  23 CALM      30.20S
EL PASO        CLEAR     59  21  23 SE8       30.13F
$$


........................KEY........................
SKY/WX - SKY CONDITION/WEATHER
TMP    - TEMPERATURE IN FAHRENHEIT
DP     - DEW POINT IN FAHRENHEIT
RH     - RELATIVE HUMIDITY IN PERCENT
WIND   - DIRECTION AND SPEED IN MILES PER HOUR (MPH)
VRB    - VARIABLE WIND DIRECTION
PRES   - MEAN SEA LEVEL PRESSURE IN INCHES OF MERCURY
         F - FALLING PRESSURE   R - RISING PRESSURE
         S - STEADY PRESSURE
VSB    - VISIBILITY IN MILES
HX     - HEAT INDEX IN FAHRENHEIT
WCI    - WIND CHILL INDEX IN FAHRENHEIT
TC     - TEMPERATURE IN CELSIUS WHICH IS ALSO KNOWN AS
         TEMPERATURE IN CENTIGRADE
AFB    - AIR FORCE BASE
         LUKE AFB IS LUKE AIR FORCE BASE
         DAVIS-MONTHAN IS DAVIS-MONTHAN AIR FORCE BASE
NAS    - NAVAL AIR STATION
         EL CENTRO NAS IS EL CENTRO NAVAL AIR STATION
N/A    - NOT AVAILABLE



USA.gov is the U.S. government's official web portal to all federal, state and local government web resources and services.